Location: Poughquag
(41.6090°N, 73.6820°W)
Time: 11:32:01
(UTC-05:00)

Envisat - Pass Details

Date: 23 January 2020
Orbit: 764 x 766 km, 98.1° (Epoch: 24 February)

Event Time Altitude Azimuth Distance (km) Brightness Sun altitude
Rises 18:41:32 0° 198° (SSW) 3,218 6.6 -19.1°
Reaches altitude 10° 18:44:12 10° 211° (SSW) 2,297 6.0 -19.6°
Maximum altitude 18:48:21 25° 266° (W) 1,507 5.3 -20.4°
Drops below altitude 10° 18:52:31 10° 321° (NW) 2,311 5.9 -21.2°
Sets 18:55:14 0° 335° (NNW) 3,242 6.5 -21.7°
